Погода в Апсуа

Россия / Карачаево-Черкесская Республика     44°26′58″N   41°47′44″E
темп.,
°C
ветер,
м/с
пор.,
м/с
влажн.,
%
обл.,
%
осадки,
мм/ч
давл.,
гПа
погр.,
м
18 мая, вт
вт1800:00+13з489697 0.5 1010390
03:00+13з1596100 1.5 1011444
06:00+13з0193100 0.4 1011136
09:00+15сз238456 0.4 1011572
12:00+18ссз337197 0.2 10111113
15:00+19св226887 0.4 1011843
18:00+18в24765 0.4 1011663
21:00+14в22880 0.4 101116
19 мая, ср
ср1900:00+12вюв349236 0.0 101086
03:00+11ююв1194100 0.0 100813
06:00+13сз499558 0.3 1009405
09:00+14сз459087 0.4 1010506
12:00+12зсз7148786 0.4 1014637
15:00+18сз47656 0.8 10131122
18:00+15сз596977 0.0 1014533
21:00+11юв22803 0.0 101722
20 мая, чт
чт2000:00+10ююв33874 0.0 101753
03:00+9ю349227 0.0 101756
06:00+9ю236998 0.0 101751
09:00+17в22565 0.0 1016366
12:00+21всв34530 0.0 10141096
15:00+23всв344822 0.0 10131318
18:00+20всв477097 0.0 1013249
21:00+14вюв310855 0.0 1014191
21 мая, пт
пт2100:00+13юв36890 0.0 101285
03:00+12юв33910 0.0 101245
06:00+13юв35825 0.0 1012111
09:00+21вюв46590 0.0 1011335
12:00+25вюв79545 0.0 1009624
15:00+25вюв812635 0.0 1008638
18:00+23вюв714695 0.0 1008463
21:00+19вюв512740 0.0 1008269
22 мая, сб
сб2200:00+15вюв35892 0.0 100771
03:00+14вюв3379100 0.0 100740
06:00+16вюв347387 0.0 100667
09:00+23ссв21585 0.0 1006258
12:00+25ссз5761100 0.0 1008738
15:00+27ссв3458100 0.0 10071201
18:00+25св3575100 0.0 1007269
21:00+20зсз3687100 0.2 100896